Weather History for Bennettsville, SC

Change the Weather History Date:

Wednesday, September 25, 2013

  Actual Average (KFLO) Record (KFLO)
Temperature  
Mean Temperature 66 °F 71 °F  
Max Temperature 78 °F 82 °F 95 °F (2010)
Min Temperature 55 °F 61 °F 41 °F (1950)
Degree Days  
Heating Degree Days 0 1  
Month to date heating degree days 2  
Since 1 July heating degree days 2  
Cooling Degree Days 2 7  
Month to date cooling degree days 256  
Year to date cooling degree days 1926  
Growing Degree Days 16 (Base 50)    
Moisture  
Dew Point 57 °F    
Average Humidity 75    
Maximum Humidity 94    
Minimum Humidity 41    
Precipitation  
Precipitation 0.05 in 0.11 in 2.19 in (1956)
Month to date precipitation 3.08  
Year to date precipitation 33.56  
Sea Level Pressure  
Sea Level Pressure 29.91 in    
Wind  
Wind Speed 2 mph (NE)    
Max Wind Speed 12 mph    
Max Gust Speed 18 mph    
Visibility 9 miles    
Events Rain    
T = Trace of Precipitation, MM = Missing Value Source: NWS Daily Summary

Daily Weather History Graph

Daily Weather History Graph

Search for Another Location

Airport:

Trip Planner

Search our weather history database for the weather conditions in past years. The results will help you decide how hot, cold, wet, or windy it might be!

Date:

Astronomy

Sep. 25, 2013 Rise Set
Actual Time 7:09 AM EDT 7:11 PM EDT
Civil Twilight 6:44 AM EDT 7:36 PM EDT
Nautical Twilight 6:14 AM EDT 8:05 PM EDT
Astronomical Twilight 5:45 AM EDT 8:34 PM EDT
Moon 11:28 PM EDT (9/25) 1:00 PM EDT (9/25)
Length of Visible Light 12h 52m
Length of Day
12h 01m
Waning Gibbous, 64% of the Moon is Illuminated
Sep 25
Waning Gibbous
Sep 26
Last Quarter
Oct 4
New
Oct 11
First Quarter
Oct 18
Full

Hourly Weather History & Observations

Time (EDT) Temp. Dew Point Humidity Pressure Visibility Wind Dir Wind Speed Gust Speed Precip Events Conditions
12:15 AM 59.0 °F 57.2 °F 94% 29.95 in 10.0 mi Calm Calm - N/A   Clear
12:35 AM 59.0 °F 57.2 °F 94% 29.95 in 7.0 mi Calm Calm - N/A   Clear
12:55 AM 57.2 °F 55.4 °F 94% 29.95 in 5.0 mi Calm Calm - N/A   Clear
1:15 AM 57.2 °F 55.4 °F 94% 29.95 in 7.0 mi Calm Calm - N/A   Clear
1:35 AM 57.2 °F 55.4 °F 94% 29.95 in 7.0 mi Calm Calm - N/A   Clear
1:55 AM 57.2 °F 55.4 °F 94% 29.94 in 7.0 mi Calm Calm - N/A   Clear
2:15 AM 59.0 °F 57.2 °F 94% 29.95 in 10.0 mi Calm Calm - N/A   Clear
2:35 AM 55.4 °F 53.6 °F 94% 29.95 in 5.0 mi Calm Calm - N/A   Clear
2:55 AM 55.4 °F 53.6 °F 94% 29.94 in 4.0 mi Calm Calm - N/A   Clear
3:35 AM 57.2 °F 55.4 °F 94% 29.93 in 7.0 mi Calm Calm - N/A   Clear
3:55 AM 57.2 °F 55.4 °F 94% 29.92 in 7.0 mi Calm Calm - N/A   Clear
4:15 AM 57.2 °F 55.4 °F 94% 29.92 in 7.0 mi Calm Calm - N/A   Clear
4:35 AM 59.0 °F 55.4 °F 88% 29.92 in 7.0 mi Calm Calm - N/A   Clear
4:55 AM 59.0 °F 55.4 °F 88% 29.92 in 7.0 mi Calm Calm - N/A   Clear
5:35 AM 59.0 °F 57.2 °F 94% 29.91 in 7.0 mi Calm Calm - N/A   Clear
5:55 AM 60.8 °F 57.2 °F 88% 29.91 in 7.0 mi Calm Calm - N/A   Scattered Clouds
6:15 AM 60.8 °F 57.2 °F 88% 29.92 in 10.0 mi Calm Calm - N/A   Scattered Clouds
6:35 AM 59.0 °F 55.4 °F 88% 29.91 in 7.0 mi Calm Calm - N/A   Scattered Clouds
6:55 AM 59.0 °F 55.4 °F 88% 29.92 in 7.0 mi Calm Calm - N/A   Clear
7:15 AM 59.0 °F 57.2 °F 94% 29.92 in 5.0 mi Calm Calm - N/A   Mostly Cloudy
7:35 AM 60.8 °F 59.0 °F 94% 29.92 in 7.0 mi Calm Calm - N/A   Mostly Cloudy
7:55 AM 60.8 °F 57.2 °F 88% 29.93 in 7.0 mi Calm Calm - N/A Rain Light Rain
8:15 AM 62.6 °F 57.2 °F 82% 29.93 in 7.0 mi Calm Calm - N/A   Mostly Cloudy
8:35 AM 62.6 °F 57.2 °F 82% 29.92 in 7.0 mi NE 3.5 mph - N/A   Mostly Cloudy
8:55 AM 64.4 °F 55.4 °F 73% 29.92 in 10.0 mi ENE 4.6 mph - N/A   Overcast
9:15 AM 64.4 °F 55.4 °F 73% 29.92 in 10.0 mi ENE 4.6 mph - N/A   Mostly Cloudy
9:35 AM 66.2 °F 55.4 °F 68% 29.92 in 10.0 mi ENE 5.8 mph - N/A   Scattered Clouds
9:55 AM 68.0 °F 55.4 °F 64% 29.93 in 10.0 mi ENE 5.8 mph - N/A   Clear
10:15 AM 69.8 °F 55.4 °F 60% 29.93 in 10.0 mi East 5.8 mph - N/A   Clear
10:35 AM 69.8 °F 53.6 °F 56% 29.93 in 10.0 mi East 8.1 mph - N/A   Scattered Clouds
10:55 AM 71.6 °F 53.6 °F 53% 29.93 in 10.0 mi East 5.8 mph - N/A   Mostly Cloudy
11:15 AM 73.4 °F 53.6 °F 50% 29.93 in 10.0 mi ESE 4.6 mph - N/A   Mostly Cloudy
11:35 AM 75.2 °F 51.8 °F 44% 29.93 in 10.0 mi ENE 11.5 mph 18.4 mph N/A   Scattered Clouds
11:55 AM 75.2 °F 53.6 °F 47% 29.92 in 10.0 mi ENE 9.2 mph - N/A   Clear
12:15 PM 73.4 °F 53.6 °F 50% 29.92 in 10.0 mi ENE 9.2 mph - N/A   Clear
12:35 PM 77.0 °F 51.8 °F 41% 29.92 in 10.0 mi NE 9.2 mph 17.3 mph N/A   Clear
12:55 PM 77.0 °F 51.8 °F 41% 29.92 in 10.0 mi ENE 9.2 mph - N/A   Mostly Cloudy
1:15 PM 77.0 °F 51.8 °F 41% 29.92 in 10.0 mi East 5.8 mph - N/A   Overcast
1:35 PM 77.0 °F 51.8 °F 41% 29.90 in 10.0 mi NE 8.1 mph - N/A   Overcast
2:15 PM 77.0 °F 53.6 °F 44% 29.88 in 10.0 mi NNE 6.9 mph - N/A   Mostly Cloudy
2:35 PM 78.8 °F 53.6 °F 42% 29.88 in 10.0 mi ENE 6.9 mph - N/A   Mostly Cloudy
2:55 PM 78.8 °F 53.6 °F 42% 29.87 in 10.0 mi East 5.8 mph - N/A   Mostly Cloudy
3:15 PM 78.8 °F 53.6 °F 42% 29.87 in 10.0 mi ENE 8.1 mph - N/A   Mostly Cloudy
3:35 PM 77.0 °F 53.6 °F 44% 29.86 in 10.0 mi NE 6.9 mph - N/A   Overcast
3:55 PM 75.2 °F 53.6 °F 47% 29.87 in 10.0 mi NE 5.8 mph - N/A   Overcast
4:15 PM 71.6 °F 59.0 °F 64% 29.87 in 5.0 mi North 3.5 mph - N/A Rain Rain
4:55 PM 69.8 °F 62.6 °F 78% 29.87 in 10.0 mi North 5.8 mph - 0.03 in   Overcast
5:15 PM 69.8 °F 60.8 °F 73% 29.87 in 10.0 mi NNE 9.2 mph - N/A Rain Light Rain
5:35 PM 69.8 °F 62.6 °F 78% 29.87 in 10.0 mi East 4.6 mph - N/A   Overcast
5:55 PM 69.8 °F 60.8 °F 73% 29.87 in 10.0 mi ENE 3.5 mph - N/A   Overcast
6:15 PM 69.8 °F 60.8 °F 73% 29.87 in 10.0 mi ENE 4.6 mph - N/A   Overcast
6:35 PM 68.0 °F 60.8 °F 78% 29.88 in 10.0 mi NE 3.5 mph - N/A   Overcast
6:55 PM 68.0 °F 60.8 °F 78% 29.88 in 10.0 mi NE 5.8 mph - N/A   Overcast
7:15 PM 68.0 °F 59.0 °F 73% 29.88 in 10.0 mi NE 4.6 mph - N/A   Overcast
7:35 PM 68.0 °F 60.8 °F 78% 29.89 in 10.0 mi NNE 3.5 mph - N/A   Overcast
7:55 PM 68.0 °F 60.8 °F 78% 29.88 in 10.0 mi NE 3.5 mph - N/A   Overcast
8:15 PM 68.0 °F 60.8 °F 78% 29.89 in 10.0 mi Calm Calm - N/A   Overcast
8:35 PM 68.0 °F 60.8 °F 78% 29.88 in 10.0 mi East 3.5 mph - N/A   Overcast
8:55 PM 66.2 °F 60.8 °F 83% 29.88 in 10.0 mi Calm Calm - N/A Rain Rain
9:15 PM 68.0 °F 60.8 °F 78% 29.88 in 10.0 mi Calm Calm - N/A   Mostly Cloudy
9:35 PM 68.0 °F 59.0 °F 73% 29.88 in 10.0 mi East 3.5 mph - N/A   Overcast
9:55 PM 64.4 °F 60.8 °F 88% 29.88 in 10.0 mi Calm Calm - N/A   Mostly Cloudy
10:15 PM 64.4 °F 60.8 °F 88% 29.88 in 10.0 mi Calm Calm - N/A   Scattered Clouds
10:35 PM 64.4 °F 62.6 °F 94% 29.88 in 7.0 mi Calm Calm - N/A   Mostly Cloudy
10:55 PM 64.4 °F 62.6 °F 94% 29.90 in 5.0 mi WNW 3.5 mph - 0.01 in Rain Rain
11:15 PM 64.4 °F 60.8 °F 88% 29.90 in 7.0 mi Calm Calm - N/A   Light Drizzle
11:35 PM 64.4 °F 60.8 °F 88% 29.90 in 7.0 mi NW 3.5 mph - N/A   Drizzle
11:55 PM 64.4 °F 60.8 °F 88% 29.90 in 7.0 mi Calm Calm - 0.01 in Rain Light Rain